{"data":{"norad_id":42805,"epoch":"2026-05-25T01:42:04.197024Z","epoch_age_seconds":66153,"freshness":"FRESH","line1":"1 42805U 17039C   26145.07088191  .00000060  00000+0  14343-4 0  9995","line2":"2 42805  86.3951 331.6312 0002030  87.7643 272.3786 14.34218743467865","mean_motion":14.34218743,"eccentricity":0.000203,"inclination_deg":86.3951,"raan_deg":331.6312,"arg_perigee_deg":87.7643,"mean_anomaly_deg":272.3786,"bstar":1.4343e-5,"rev_number":46786,"period_min":100.40309450899,"perigee_km":776.21122383755,"apogee_km":779.11647898322,"semimajor_km":7155.8008514104,"source":"CELESTRAK","updated_at":"2026-05-25T13:38:14.800028Z"}}